Simultaneous Nadir Overpasses (SNOs) Predictions

Prediction of SNOs between GOES-15 and NOAA-20 Satellite Orbit:

Table of predicted SNOs for the next 14.0 days since TLE Epoch: 3/5/2022
Index Date Time (GOES-15) GOES-15 Lat,Lon NOAA-20 Lat,Lon Distance(km) Time Diff (sec)
1 03/06/2022 10:07:55 0.05,-127.63 0.66,-130.27 301.02 80
2 03/07/2022 09:46:31 0.05,-127.67 -0.36,-125.74 219.83 80
3 03/08/2022 22:11:10 -0.05,-127.74 -0.80,-131.05 377.93 80
4 03/09/2022 21:49:46 -0.05,-127.78 0.22,-126.52 142.67 80
5 03/11/2022 10:14:15 0.06,-127.84 0.96,-131.80 451.15 80
6 03/12/2022 09:52:52 0.06,-127.88 -0.06,-127.27 69.03 80
7 03/14/2022 21:58:47 -0.07,-127.97 -0.07,-128.06 9.96 80
8 03/17/2022 10:01:53 0.08,-128.06 0.23,-128.80 84.55 80
9 03/18/2022 09:40:29 0.07,-128.09 -0.79,-124.27 435.05 80
